Location: Baia Mare
(47.6567°N, 23.5850°E)
Time: 17:53:29
(UTC+02:00)

ISS - Pass Details

Date: 04 February 2019
Orbit: 406 x 411 km, 51.6° (Epoch: 21 March)

Event Time Altitude Azimuth Distance (km) Brightness Sun altitude
Rises 20:16:54 0° 292° (WNW) 2,351 1.2 -28.2°
Reaches altitude 10° 20:19:04 10° 284° (WNW) 1,487 0.0 -28.5°
Enters shadow 20:20:09 18° 274° (W) 1,091 -0.9 -28.7°
